Wind_Speed
7 8 9 9 11 12 13 13 14 14 13 15 15 13 15 18 19 21 25 31 37 38 41 44 41 43 42 39 41 41 43 43 39 40 40 34 34 31 33 34 34 32 28
11 10 12 12 12 14 15 14 18 17 17 15 12 11 18 28 36 29 27 29 34 35 39 42 47 51 49 48 45 44 44 46 44 40 36 34 36 36 36 34 40 40 37
13 14 14 16 20 19 21 15 16 18 18 17 15 16 23 31 33 31 27 28 30 33 35 39 43 46 50 53 55 54 54 52 55 48 45 48 47 43 44 39 37 36 36
17 19 20 19 20 22 26 26 26 28 28 28 31 35 36 33 34 33 37 38 33 32 29 30 32 36 42 46 50 53 57 62 61 58 54 50 50 48 42 43 44 44 45
25 24 26 28 31 26 27 31 32 31 33 34 42 44 45 35 32 40 40 32 27 27 29 34 38 39 39 38 42 48 50 50 53 58 59 59 56 56 53 50 48 50 50
30 29 30 32 33 36 41 33 33 39 42 46 43 49 44 45 39 56 45 40 37 30 29 32 37 44 50 55 51 47 47 52 57 52 60 59 58 56 61 60 60 59 54
35 33 34 34 35 39 40 30 31 36 38 49 49 45 45 56 60 56 52 44 38 47 44 45 50 45 50 58 59 66 68 59 57 59 63 65 67 68 65 67 65 64 61
39 38 38 39 40 40 39 48 39 42 39 47 46 47 50 60 67 70 69 56 50 68 57 65 63 56 68 68 72 76 71 70 73 70 69 69 69 72 76 75 76 74 70
39 36 38 36 37 35 44 38 54 51 45 55 56 55 57 66 71 78 73 74 81 77 76 82 86 80 76 74 85 88 94 87 75 69 73 77 74 72 73 79 81 77 78
48 41 38 37 35 40 42 25 49 44 56 65 69 71 73 72 76 81 91 86 84 89 91 96 94 96 90 95 94 94 98 93 83 73 73 76 79 77 75 75 81 80 77
52 49 46 39 45 50 31 45 52 54 58 67 75 76 77 75 80 87 96 100 101 99 97 94 100 97 100 93 91 93 94 90 82 73 73 71 76 78 79 79 78 80 79
55 54 54 51 52 51 49 53 54 53 57 69 67 67 75 79 86 99 104 101 104 108 107 108 101 106 107 95 92 97 97 93 77 70 65 65 65 68 75 81 83 81 80
59 61 60 57 55 55 60 66 64 62 60 68 64 74 82 89 95 97 100 102 113 114 109 106 107 103 102 100 95 93 96 83 72 63 62 61 61 61 68 75 82 85 83
62 65 58 60 63 66 65 65 71 75 78 75 72 75 84 91 96 103 109 110 106 103 103 99 96 97 97 97 86 83 77 76 70 60 53 54 58 59 62 67 71 79 83
56 61 64 66 67 67 67 67 68 68 76 81 84 91 95 97 101 106 112 108 111 108 96 96 95 100 97 103 92 81 70 68 66 60 54 54 54 52 54 62 66 70 72
53 62 63 64 65 64 59 54 63 71 78 86 87 87 96 101 102 97 106 105 92 87 90 91 101 113 111 111 83 73 63 57 54 52 50 52 47 44 46 51 57 63 66
49 59 64 62 61 62 62 70 77 80 82 80 82 82 88 99 93 93 87 81 77 83 101 110 94 91 87 65 53 46 41 37 37 40 40 40 43 44 45 47 49 52 58
54 53 55 51 55 66 74 83 79 84 77 71 73 75 78 78 81 82 75 70 67 70 68 73 63 59 50 43 40 34 29 28 26 28 33 38 42 46 49 47 48 46 49
62 62 58 69 79 81 83 82 89 79 70 68 68 70 72 74 73 73 62 60 60 63 62 53 49 44 41 36 32 25 19 20 26 33 39 44 46 47 48 47 45 45 43
67 71 73 76 82 88 90 91 85 73 70 68 67 67 66 63 63 60 55 55 54 52 49 45 42 37 33 26 21 20 22 28 34 38 42 44 45 45 44 45 43 42 41
66 68 73 79 86 97 84 74 69 67 65 65 64 62 59 55 52 51 50 47 44 43 39 39 38 31 23 24 24 28 28 31 36 40 42 43 40 35 34 37 39 38 37
72 81 82 88 96 87 79 70 65 62 61 59 57 55 53 50 49 47 45 43 40 38 35 33 30 25 26 26 28 29 29 32 36 40 40 36 32 29 27 28 29 30 34
85 90 93 104 94 76 69 63 60 57 55 55 54 49 48 47 47 45 42 41 38 35 33 33 31 29 30 30 30 31 32 33 36 39 36 26 21 15 12 14 19 23 27
98 101 103 104 83 74 68 63 61 59 56 54 51 48 46 46 47 45 40 40 38 35 35 33 32 31 32 34 35 34 34 33 33 35 34 26 20 17 19 22 25 24 24
98 107 85 77 71 67 64 59 55 53 50 49 49 48 47 47 44 42 41 41 38 36 36 33 33 32 33 35 36 36 34 35 32 33 33 29 24 24 25 26 29 28 25
101 96 81 70 65 62 59 56 55 53 50 50 51 48 47 46 44 42 41 41 41 39 38 38 38 36 34 35 36 38 35 34 35 33 32 27 25 23 21 22 23 23 22
Wind_Direction
1 356 357 356 354 346 341 346 350 345 344 345 338 335 338 332 308 288 282 280 282 283 282 281 279 276 274 275 277 275 281 282 292 289 289 276 269 272 274 267 268 263 269
321 323 323 323 326 334 336 335 343 335 333 334 334 334 341 337 335 317 299 292 286 278 277 280 281 278 279 281 277 278 276 277 279 286 278 278 270 267 275 273 261 261 270
313 312 314 317 323 326 334 321 317 317 315 309 315 316 317 335 331 325 311 310 297 292 289 285 283 282 279 280 279 277 276 275 276 273 273 277 280 272 276 270 264 260 261
319 319 321 321 327 321 322 318 314 307 307 310 299 298 305 312 337 342 334 326 314 307 303 304 300 295 293 288 283 280 277 275 275 280 278 271 272 268 273 265 268 267 268
317 321 321 326 329 337 342 324 320 305 300 307 307 304 297 302 311 315 338 328 340 342 342 346 342 327 313 309 301 296 289 282 281 276 274 272 267 265 266 258 258 266 268
309 313 315 315 316 318 328 328 331 320 309 304 303 304 294 284 308 311 325 328 310 325 334 340 341 337 329 325 314 306 298 292 284 276 272 266 265 268 263 255 256 259 264
295 302 307 306 309 319 318 319 309 320 321 321 311 305 297 295 305 312 305 308 313 304 299 317 316 316 324 323 319 311 304 297 289 278 272 269 267 261 260 260 256 254 257
289 294 299 303 308 315 315 319 307 310 306 312 312 305 291 291 298 307 306 305 294 304 301 302 311 311 316 317 317 317 308 295 289 277 270 265 264 265 263 260 258 257 256
284 290 295 302 305 309 310 318 322 299 304 293 304 300 290 288 299 302 298 296 302 308 307 312 315 311 315 313 318 316 315 305 288 276 272 269 265 261 260 261 260 260 260
289 291 295 292 288 297 304 304 216 261 276 275 284 294 296 292 293 291 295 297 300 303 304 312 312 313 314 315 316 313 309 307 296 285 275 269 264 263 261 258 258 255 257
287 292 290 285 290 290 266 290 294 275 270 274 284 287 290 290 288 287 287 291 297 302 304 304 307 312 315 315 312 312 305 303 295 287 280 272 267 264 261 259 257 257 256
288 288 287 287 286 278 268 279 285 277 272 269 274 275 279 280 283 286 290 296 301 302 301 301 304 305 310 306 308 307 303 301 293 287 280 274 268 266 264 262 258 255 255
286 288 285 282 281 275 271 274 277 271 270 268 281 283 285 285 286 289 293 295 297 296 299 303 306 308 306 302 299 299 299 296 291 288 283 278 275 270 264 260 258 255 252
285 285 284 279 281 283 281 278 280 283 282 278 278 280 284 283 284 287 291 291 294 300 300 301 306 309 310 307 298 297 294 292 291 289 287 281 278 277 272 264 258 254 252
285 284 284 285 285 285 284 288 286 290 280 277 276 277 280 280 283 284 288 288 291 299 304 303 303 307 309 312 302 293 289 286 285 288 288 283 280 275 272 271 264 258 252
280 280 281 282 284 287 290 294 292 293 295 287 283 278 275 278 286 289 285 294 299 300 302 306 306 303 304 308 302 293 289 282 280 282 283 283 281 279 274 273 271 267 259
286 289 286 284 282 283 284 292 299 304 301 294 288 285 280 277 289 293 295 296 299 300 299 300 305 307 309 305 298 292 287 279 276 277 278 278 282 282 276 273 273 269 266
290 296 284 280 286 287 293 300 300 306 299 292 289 287 286 289 290 292 296 299 305 310 309 308 311 311 312 310 304 298 296 292 285 281 282 283 283 282 277 274 272 271 267
288 288 281 288 300 302 302 302 307 305 299 295 292 291 291 292 295 297 304 305 310 310 309 309 308 311 311 310 309 306 296 286 286 284 283 283 283 279 277 273 269 270 270
293 292 300 306 312 309 303 301 302 301 301 298 296 296 297 298 299 304 308 309 308 310 310 308 306 307 307 301 298 298 294 292 298 297 297 295 289 284 280 274 271 267 268
302 305 305 307 307 309 304 301 300 298 299 298 297 298 299 303 305 306 306 304 306 311 308 302 304 302 292 288 291 293 302 308 310 311 308 305 298 291 284 276 274 271 272
303 302 302 306 310 306 302 301 299 299 299 298 298 301 302 302 303 305 305 307 308 309 306 302 300 287 279 284 289 297 305 310 316 321 318 314 310 299 286 279 277 278 278
299 301 304 308 308 303 301 301 299 298 297 298 298 298 296 296 299 303 306 309 306 305 301 304 304 288 282 286 291 300 305 308 318 323 327 321 317 320 304 288 287 293 293
300 306 306 308 303 301 300 297 296 295 295 294 292 292 292 294 298 298 302 306 304 299 298 298 299 297 286 286 290 297 301 303 309 320 324 320 297 297 292 293 296 299 303
307 311 305 303 302 299 297 294 293 292 290 289 290 291 292 292 293 295 297 300 302 297 293 297 296 292 292 289 290 294 293 295 300 311 316 321 313 295 293 294 299 304 304
307 306 301 299 297 294 292 290 287 283 281 284 287 287 287 286 289 289 293 294 296 296 295 291 292 290 284 286 285 286 288 287 291 299 302 307 307 312 304 307 313 315 317
Height
10965 10964 10964 10963 10962 10960 10959 10958 10956 10954 10952 10951 10949 10947 10945 10943 10940 10937 10935 10933 10932 10931 10930 10928 10927 10927 10928 10929 10928 10928 10929 10928 10927 10927 10928 10928 10927 10927 10927 10926 10927 10928 10928
10961 10961 10960 10960 10959 10959 10958 10958 10956 10953 10950 10946 10944 10942 10941 10938 10934 10930 10928 10924 10922 10919 10917 10917 10915 10915 10917 10917 10919 10919 10919 10918 10919 10921 10919 10919 10920 10919 10919 10919 10918 10919 10920
10958 10958 10958 10957 10956 10955 10955 10953 10950 10947 10945 10942 10939 10936 10933 10931 10927 10924 10922 10919 10916 10912 10910 10908 10906 10905 10905 10906 10907 10908 10909 10909 10907 10909 10910 10908 10908 10910 10909 10908 10909 10910 10910
10954 10954 10954 10953 10952 10951 10949 10947 10944 10941 10939 10937 10934 10929 10927 10924 10920 10917 10915 10910 10906 10904 10904 10902 10900 10897 10895 10895 10895 10897 10897 10898 10898 10897 10895 10895 10894 10895 10898 10898 10898 10898 10898
10950 10949 10947 10946 10944 10943 10940 10938 10935 10933 10931 10929 10926 10923 10919 10916 10914 10912 10907 10902 10895 10893 10893 10891 10889 10889 10888 10885 10883 10883 10883 10882 10883 10883 10881 10877 10880 10880 10882 10884 10885 10885 10885
10943 10941 10940 10938 10935 10933 10931 10928 10927 10925 10922 10917 10915 10914 10911 10906 10903 10898 10894 10894 10892 10887 10882 10879 10879 10877 10874 10871 10873 10871 10869 10866 10865 10865 10864 10861 10861 10862 10863 10864 10866 10868 10870
10934 10932 10931 10928 10927 10925 10922 10921 10920 10916 10911 10905 10896 10896 10894 10890 10889 10886 10882 10878 10876 10877 10872 10872 10870 10867 10864 10864 10860 10853 10848 10847 10845 10842 10840 10837 10844 10843 10842 10843 10847 10848 10851
10925 10924 10923 10921 10918 10917 10915 10909 10905 10903 10898 10894 10886 10882 10879 10875 10872 10868 10863 10860 10859 10858 10861 10857 10855 10848 10843 10841 10840 10836 10833 10829 10824 10816 10815 10809 10815 10819 10824 10823 10821 10824 10829
10916 10917 10914 10911 10907 10908 10900 10893 10904 10899 10891 10880 10875 10867 10861 10861 10860 10855 10849 10841 10838 10834 10829 10829 10833 10831 10827 10825 10814 10806 10800 10796 10794 10792 10788 10786 10786 10790 10797 10800 10798 10804 10804
10904 10905 10902 10900 10895 10893 10883 10883 10891 10864 10862 10862 10858 10852 10850 10845 10841 10839 10831 10824 10821 10814 10809 10806 10805 10807 10802 10794 10788 10784 10778 10771 10763 10763 10759 10757 10757 10758 10764 10772 10774 10778 10781
10892 10892 10889 10888 10883 10879 10872 10862 10862 10853 10855 10851 10845 10836 10832 10827 10824 10818 10810 10809 10805 10802 10795 10789 10784 10781 10776 10769 10763 10758 10754 10748 10737 10733 10730 10728 10726 10727 10730 10739 10747 10751 10756
10880 10876 10875 10874 10872 10866 10864 10855 10850 10847 10843 10840 10827 10819 10814 10808 10806 10801 10798 10792 10784 10779 10771 10766 10764 10757 10755 10746 10737 10728 10722 10716 10713 10705 10701 10699 10699 10698 10700 10705 10715 10725 10728
10863 10860 10857 10855 10855 10852 10845 10839 10835 10833 10827 10819 10812 10806 10798 10791 10789 10786 10779 10772 10764 10753 10746 10741 10735 10729 10723 10717 10712 10701 10691 10684 10683 10682 10676 10673 10671 10671 10675 10677 10682 10691 10701
10845 10839 10837 10836 10832 10832 10833 10833 10823 10814 10807 10801 10795 10789 10784 10781 10774 10766 10757 10747 10737 10732 10724 10720 10713 10703 10695 10688 10678 10669 10660 10652 10653 10655 10652 10651 10648 10646 10648 10650 10655 10660 10670
10829 10823 10821 10818 10816 10813 10815 10812 10810 10804 10798 10790 10783 10776 10770 10761 10753 10745 10736 10723 10717 10710 10700 10693 10684 10674 10665 10657 10646 10638 10631 10628 10627 10629 10628 10630 10630 10628 10626 10622 10627 10631 10641
10814 10811 10810 10808 10804 10799 10798 10795 10792 10785 10779 10770 10762 10754 10747 10739 10730 10719 10708 10703 10695 10685 10677 10667 10660 10653 10644 10637 10621 10611 10609 10608 10609 10610 10609 10611 10610 10611 10610 10607 10604 10606 10612
10805 10801 10793 10790 10787 10782 10780 10774 10767 10761 10750 10740 10733 10725 10720 10717 10709 10697 10692 10685 10672 10663 10658 10649 10637 10623 10612 10602 10593 10592 10593 10592 10594 10596 10597 10597 10597 10597 10595 10592 10589 10587 10586
10788 10784 10780 10776 10772 10768 10761 10755 10745 10736 10726 10716 10708 10702 10697 10694 10688 10679 10675 10661 10647 10639 10638 10627 10614 10608 10600 10591 10586 10584 10582 10581 10582 10586 10588 10587 10585 10582 10578 10576 10573 10573 10571
10775 10772 10766 10760 10750 10742 10735 10727 10719 10711 10703 10695 10688 10681 10676 10672 10665 10661 10653 10637 10627 10623 10621 10614 10607 10599 10595 10586 10580 10577 10576 10578 10579 10579 10577 10574 10570 10567 10562 10558 10557 10557 10557
10757 10752 10745 10737 10727 10718 10710 10701 10693 10685 10678 10673 10665 10659 10656 10652 10646 10639 10632 10622 10616 10609 10602 10597 10598 10593 10586 10580 10577 10575 10575 10575 10572 10567 10563 10558 10553 10548 10544 10540 10540 10542 10542
10739 10732 10724 10716 10706 10697 10686 10676 10670 10663 10659 10654 10647 10642 10637 10632 10625 10623 10619 10613 10603 10596 10592 10591 10588 10583 10579 10575 10572 10570 10569 10566 10562 10556 10549 10543 10538 10533 10529 10527 10527 10528 10530
10720 10712 10704 10694 10687 10676 10666 10657 10649 10644 10640 10636 10630 10624 10619 10616 10613 10612 10608 10599 10590 10586 10584 10583 10579 10575 10572 10568 10565 10564 10562 10559 10554 10546 10539 10532 10527 10522 10519 10518 10519 10519 10518
10701 10692 10683 10675 10663 10653 10646 10638 10632 10627 10623 10620 10615 10612 10609 10606 10603 10599 10593 10585 10580 10577 10575 10572 10569 10566 10562 10560 10558 10556 10554 10551 10546 10539 10533 10528 10522 10517 10514 10513 10512 10511 10508
10677 10669 10660 10650 10640 10633 10626 10620 10616 10612 10609 10606 10603 10601 10597 10594 10590 10586 10580 10574 10571 10568 10566 10562 10558 10557 10556 10554 10551 10548 10546 10543 10540 10535 10530 10524 10519 10514 10512 10510 10507 10504 10501
10653 10644 10634 10627 10621 10615 10609 10603 10599 10596 10593 10590 10588 10586 10584 10580 10576 10572 10567 10564 10562 10560 10556 10552 10550 10549 10547 10544 10541 10539 10538 10536 10533 10530 10525 10519 10514 10510 10506 10504 10500 10497 10494
10633 10627 10620 10612 10605 10599 10593 10588 10585 10582 10580 10578 10575 10572 10569 10566 10563 10559 10556 10554 10551 10548 10545 10542 10541 10539 10537 10535 10532 10531 10529 10527 10525 10523 10519 10514 10510 10506 10502 10498 10495 10490 10487